Home   Weather   Independence   Past weeks
Flag for USA

Past Weather in Independence, Missouri, USA — Yesterday and Last 2 Weeks

Now
18 °F

Sunny.


Feels Like: 5 °F
Forecast: 20 / 10 °F
Wind: 12 mph from Northwest

Location: Lee's Summit Municipal Airport

Current Time: Jan 19, 2020 at 1:13:50 pm

Latest Report: Jan 19, 2020 at 11:53 am


Visibility: 10 mi

Pressure: 30.63 "Hg

Humidity: 43%

Dew Point: -1 °F

Location of IndependenceLocation

Past Weather in Independence — Graph

°F

Independence Temperature Yesterday

Maximum temperature yesterday: 43 °F (at 3:00 am)
Minimum temperature yesterday: 26 °F (at 8:53 am)
Average temperature yesterday: 33 °F

High & Low Weather Summary for the Past Weeks

 TemperatureHumidityPressure
High64 °F (Jan 9, 12:53 pm)97% (Jan 14, 9:53 am)30.82 "Hg (Jan 14, 9:53 am)
Low12 °F (Jan 19, 7:53 am)31% (Jan 5, 12:53 pm)29.77 "Hg (Jan 9, 8:01 am)
Average36 °F72%30.14 "Hg
* Reported Jan 4 11:53 am — Jan 19 11:53 am, Independence. Weather by CustomWeather, © 2020

Note: Actual official high and low records may vary slightly from our data, if they occured in-between our weather recording intervals... More about our weather records

Independence Weather History for the Previous 24 Hours

Scroll right to see more
 ConditionsComfort  
Time TempWeatherWind HumidityBarometerVisibility
11:53 am
Sun, Jan 19
18 °FSunny.12 mph43%30.63 "Hg10 mi
10:53 am16 °FSunny.14 mph45%30.63 "Hg10 mi
9:53 am15 °FSunny.13 mph49%30.61 "Hg10 mi
8:53 am13 °FSunny.15 mph51%30.59 "Hg10 mi
7:53 am12 °FSunny.17 mph53%30.58 "Hg10 mi
6:53 am14 °FClear.22 mph51%30.55 "Hg10 mi
5:53 am15 °FClear.12 mph56%30.53 "Hg10 mi
4:53 am16 °FClear.9 mph56%30.53 "Hg10 mi
3:53 am18 °FClear.15 mph52%30.51 "Hg10 mi
2:53 am20 °FClear.14 mph50%30.50 "Hg10 mi
1:53 am22 °FClear.13 mph46%30.47 "Hg10 mi
12:53 am24 °FClear.20 mph42%30.45 "Hg10 mi
11:53 pm
Sat, Jan 18
26 °FClear.12 mph46%30.45 "Hg10 mi
10:53 pm28 °FClear.16 mph47%30.43 "Hg10 mi
9:53 pm27 °FClear.13 mph51%30.42 "Hg10 mi
8:53 pm27 °FClear.8 mph51%30.42 "Hg10 mi
7:53 pm27 °FClear.12 mph49%30.42 "Hg10 mi
6:53 pm28 °FClear.12 mph49%30.41 "Hg10 mi
5:53 pm29 °FClear.13 mph45%30.39 "Hg10 mi
4:53 pm30 °FSunny.8 mph43%30.37 "Hg10 mi
3:53 pm32 °FSunny.16 mph43%30.35 "Hg10 mi
2:53 pm32 °FSunny.15 mph45%30.33 "Hg10 mi
1:53 pm32 °FSunny.20 mph47%30.30 "Hg10 mi
Weather by CustomWeather, © 2020

See weather overview

Advertising